Flag Weather past 2 weeks in Lünen, North Rhine-Westphalia, Germany

Now
45 °F

Passing clouds.


Feels Like: 38 °F
Forecast: 35 / 44 °F
Wind: 13 mph from Northeast

Location: Dortmund / Wickede

Current Time: Nov 28, 2014 at 2:40:56 PM

Latest Report: Nov 28, 2014 at 2:20 PM


Visibility: N/A

Pressure: 29.83 "Hg

Humidity: 71%

Dew point: 36 °F

Location of LünenLocation

Historic Weather in Lünen — Graph

°F

Lünen temperature yesterday

Maximum temperature yesterday: 46 °F (at 1:50 PM)
Minimum temperature yesterday: 39 °F (at 6:50 AM)
Average temperature yesterday: 43 °F

Past Weeks' High & Low Weather Summary

 TemperatureHumidityPressure
High61 °F (Nov 23, 11:20 AM)93% (Nov 15, 5:50 AM)30.33 "Hg (Nov 15, 5:50 AM)
Low32 °F (Nov 21, 5:20 AM)55% (Nov 23, 11:20 AM)29.50 "Hg (Nov 16, 12:50 PM)
Average45 °F81%29.95 "Hg
* Reported Nov 13 1:20 PM — Nov 28 1:20 PM, Lünen, Weather by CustomWeather, © 2014

Note: Actual official high and low records may vary slightly from our data, if they occured in-between our weather recording intervals... More about our weather records

Advertising

Lünen weather history for previous 24 hours

 ConditionsComfort  
Time TempWeatherWind HumidityBarometerVisibility
1:20 PM
Nov 28
45 °FPassing clouds.9 mph76%29.83 "HgN/A
12:50 PM45 °FPassing clouds.10 mph76%29.83 "HgN/A
12:20 PM45 °FPassing clouds.9 mph76%29.83 "HgN/A
11:50 AM43 °FClear.6 mph81%29.83 "Hg6 mi
11:20 AM41 °FClear.6 mph87%29.83 "Hg5 mi
10:50 AM41 °FClear.8 mph81%29.83 "Hg4 mi
10:20 AM39 °FClear.7 mph87%29.83 "Hg4 mi
9:50 AM39 °FClear.9 mph87%29.80 "Hg4 mi
9:20 AM39 °FClear.8 mph87%29.80 "Hg4 mi
8:50 AM37 °FClear.8 mph93%29.80 "Hg6 mi
8:20 AM37 °FClear.6 mph93%29.80 "Hg5 mi
7:50 AM37 °FClear.5 mph93%29.80 "Hg5 mi
7:20 AM37 °FClear.6 mph87%29.80 "Hg10 mi
6:50 AM36 °FClear.7 mph93%29.77 "Hg10 mi
6:20 AM36 °FClear.5 mph93%29.77 "Hg6 mi
5:50 AM36 °FClear.2 mph93%29.77 "Hg5 mi
5:20 AM36 °FClear.6 mph87%29.77 "Hg10 mi
10:50 PM
Nov 27
41 °FPassing clouds.5 mph93%29.77 "HgN/A
10:20 PM43 °FClear.5 mph87%29.77 "Hg10 mi
9:50 PM43 °FClear.5 mph87%29.77 "Hg10 mi
9:20 PM43 °FPassing clouds.3 mph87%29.77 "HgN/A
8:50 PM43 °FPassing clouds.6 mph87%29.77 "HgN/A
8:20 PM43 °FClear.5 mph87%29.77 "Hg10 mi
7:50 PM43 °FPassing clouds.6 mph87%29.77 "HgN/A
7:20 PM43 °FClear.5 mph87%29.77 "HgN/A
6:50 PM43 °FClear.6 mph87%29.77 "HgN/A
6:20 PM43 °FClear.5 mph81%29.77 "Hg10 mi
5:50 PM43 °FPartly cloudy.5 mph81%29.77 "HgN/A
5:20 PM43 °FClear.5 mph81%29.77 "Hg10 mi
4:50 PM43 °FClear.5 mph87%29.77 "Hg10 mi
4:20 PM45 °FSunny.6 mph81%29.77 "Hg10 mi
3:50 PM45 °FSunny.5 mph81%29.77 "Hg10 mi
3:20 PM45 °FSunny.6 mph81%29.77 "Hg10 mi
2:50 PM45 °FPassing clouds.6 mph81%29.77 "HgN/A
2:20 PM46 °FScattered clouds.5 mph76%29.77 "HgN/A
Weather by CustomWeather, © 2014

See weather overviewHow to use our weather pages